Weather in Adrasan

Turkey     36°19′52″N   30°25′56″E
temp.,
°C
wind,
m/s
gust,
m/s
humid.,
%
clouds,
%
prec.,
mm/h
press.,
hPa
HPBL,
m
12 april, mon
mon1200:00+12n44524 0.0 1019629
03:00+12nne66553 0.0 1019546
06:00+11nne55574 0.0 1018382
09:00+14nne33450 0.0 1019627
12:00+15ne54404 0.0 10201485
15:00+16se22397 0.0 10201090
18:00+15wsw55525 0.0 1020729
21:00+13w456432 0.0 1020326
13 april, tue
tue1300:00+12nnw22655 0.0 1020176
03:00+12n22655 0.0 1020217
06:00+12nnw11664 0.0 1020174
09:00+15ene11590 0.0 1020511
12:00+16s22533 0.0 1020871
15:00+16sw66574 0.0 1020965
18:00+16wsw55595 0.0 1019721
21:00+14wsw33713 0.0 1020306
14 april, wed
wed1400:00+13nw22740 0.0 1020187
03:00+13n23765 0.0 1019220
06:00+13nne4479100 0.0 1019268
09:00+15nne3370100 0.0 1020491
12:00+17ene216131 0.0 1020817
15:00+17s326298 0.0 1019810
18:00+16sw44655 0.0 1018636
21:00+14wsw22745 0.0 1018272
15 april, thu
thu1500:00+13n1176100 0.0 1018130
03:00+13ne22805 0.0 1017230
06:00+13nne22815 0.0 1017242
09:00+16ene227111 0.0 1017580
12:00+18se22590 0.0 1018787
15:00+18s33570 0.0 1017755
18:00+17sw33630 0.0 1016590
21:00+14w127313 0.0 1016158
16 april, fri
fri1600:00+14wnw227640 0.0 101696
03:00+13nnw22785 0.0 101586
06:00+14nne12799 0.0 1014118
09:00+17ssw106647 0.0 1015352
12:00+18sw3259100 0.0 1016605
15:00+18sw4353100 0.0 1016552
18:00+17wsw436479 0.0 1015315
21:00+15w447772 0.0 1016175